Ft. Stewart, GA

11:55 PM EDT on June 25, 2017 (GMT -0400)
Wright Army Air Field

Weather History for KLHW - May, 2009

Change the Weather History Date:

Tuesday, May 12, 2009

  Actual Average Record
Temperature  
Mean Temperature - -  
Max Temperature - 84 °F 96 °F (1967)
Min Temperature - 59 °F 45 °F (1969)
Moisture  
Dew Point -    
Average Humidity    
Maximum Humidity    
Minimum Humidity    
Precipitation  
Precipitation 0.00 in - - ()
Wind  
Wind Speed - (North)    
Max Wind Speed -    
Max Gust Speed -    
Averages and records for this station are not official NWS values.
T = Trace of Precipitation, MM = Missing Value Source: NWS Daily Summary

Daily Weather History Graph

Daily Weather History Graph

Search for Another Location

Airport or City:

Trip Planner

Search our weather history database for the weather conditions in past years. The results will help you decide how hot, cold, wet, or windy it might be!

Date:

Astronomy

May. 12, 2009 Rise Set
Actual Time 6:31 AM EDT 8:14 PM EDT
Civil Twilight 6:04 AM EDT 8:41 PM EDT
Nautical Twilight 5:32 AM EDT 9:13 PM EDT
Astronomical Twilight 4:58 AM EDT 9:47 PM EDT
Moon 11:43 PM EDT (5/12) 8:52 AM EDT (5/12)
Length of Visible Light 14h 36m
Length of Day
13h 43m
Waning Gibbous, 89% of the Moon is Illuminated
May 12
Waning Gibbous
May 17
Last Quarter
May 24
New
May 30
First Quarter
Jun 7
Full

Hourly Weather History & Observations

Time (EDT) Temp. Dew Point Humidity Pressure Visibility Wind Dir Wind Speed Gust Speed Precip Events Conditions
12:05 AM 66.2 °F 62.6 °F 88% 30.08 in 10.0 mi NNE 8.1 mph - N/A   Overcast
12:18 AM 66.2 °F 62.6 °F 88% 30.07 in 10.0 mi NE 9.2 mph - N/A   Mostly Cloudy
12:48 AM 64.4 °F 60.8 °F 88% 30.08 in 10.0 mi NNE 6.9 mph - N/A   Mostly Cloudy
12:55 AM 64.9 °F 61.5 °F 89% 30.08 in 10.0 mi NNE 5.8 mph - N/A   Mostly Cloudy
1:07 AM 64.4 °F 60.8 °F 88% 30.08 in 10.0 mi NNE 9.2 mph - N/A   Overcast
1:55 AM 63.3 °F 59.5 °F 87% 30.09 in 10.0 mi NE 9.2 mph - N/A   Overcast
2:55 AM 61.9 °F 57.7 °F 86% 30.09 in 10.0 mi NNE 6.9 mph - N/A   Overcast
3:29 AM 60.8 °F 57.2 °F 88% 30.10 in 10.0 mi NNE 9.2 mph - N/A   Overcast
3:46 AM 60.8 °F 57.2 °F 88% 30.10 in 10.0 mi NE 6.9 mph - N/A   Overcast
3:55 AM 61.2 °F 57.2 °F 87% 30.09 in 10.0 mi NNE 8.1 mph - N/A   Overcast
4:27 AM 60.8 °F 57.2 °F 88% 30.10 in 10.0 mi North 4.6 mph - N/A   Overcast
4:46 AM 60.8 °F 57.2 °F 88% 30.09 in 10.0 mi North 10.4 mph - N/A   Overcast
4:55 AM 59.9 °F 56.1 °F 87% 30.10 in 10.0 mi North 8.1 mph - N/A   Overcast
5:18 AM 59.0 °F 55.4 °F 88% 30.11 in 10.0 mi North 5.8 mph - N/A   Overcast
5:55 AM 59.0 °F 53.2 °F 81% 30.11 in 10.0 mi North 8.1 mph - N/A   Overcast
6:02 AM 59.0 °F 53.6 °F 82% 30.11 in 10.0 mi NNE 6.9 mph - N/A   Overcast
6:55 AM 58.5 °F 52.2 °F 80% 30.13 in 10.0 mi North 8.1 mph - N/A   Mostly Cloudy
7:55 AM 58.8 °F 52.5 °F 80% 30.15 in 10.0 mi NNE 8.1 mph - N/A   Mostly Cloudy
8:55 AM 59.9 °F 52.0 °F 75% 30.17 in 10.0 mi NNE 9.2 mph - N/A   Mostly Cloudy
9:55 AM 60.4 °F 52.5 °F 75% 30.18 in 10.0 mi NNE 6.9 mph - N/A   Mostly Cloudy
10:54 AM 62.6 °F 53.6 °F 72% 30.20 in 10.0 mi North 9.2 mph - N/A   Clear
10:55 AM 62.4 °F 53.4 °F 72% 30.20 in 10.0 mi North 9.2 mph - 0.00 in Rain Light Rain
11:06 AM 62.6 °F 53.6 °F 72% 30.19 in 10.0 mi NNE 9.2 mph - N/A   Clear
11:55 AM 64.4 °F 54.9 °F 71% 30.20 in 10.0 mi NNE 8.1 mph - 0.00 in   Clear
11:56 AM 64.4 °F 55.4 °F 73% 30.20 in 10.0 mi NNE 8.1 mph - N/A   Clear
5:18 PM 69.8 °F 59.0 °F 68% 30.13 in 10.0 mi ENE 6.9 mph - N/A   Mostly Cloudy
5:19 PM 69.8 °F 59.0 °F 68% 30.13 in 10.0 mi ENE 5.8 mph - N/A   Mostly Cloudy
5:21 PM 69.8 °F 59.0 °F 68% 30.13 in 10.0 mi NE 5.8 mph - N/A   Mostly Cloudy
5:55 PM 70.2 °F 58.8 °F 67% 30.13 in 10.0 mi NE 6.9 mph - N/A   Partly Cloudy
6:55 PM 68.7 °F 59.9 °F 73% 30.13 in 10.0 mi ENE 4.6 mph - N/A   Mostly Cloudy
7:14 PM 68.0 °F 60.8 °F 78% 30.13 in 10.0 mi East 9.2 mph - N/A   Overcast
7:20 PM 68.0 °F 60.8 °F 78% 30.14 in 10.0 mi East 9.2 mph - N/A   Overcast
7:55 PM 67.3 °F 59.5 °F 76% 30.14 in 10.0 mi East 6.9 mph - N/A   Overcast
8:55 PM 66.2 °F 58.5 °F 76% 30.15 in 10.0 mi ENE 4.6 mph - N/A   Overcast
9:55 PM 65.7 °F 54.9 °F 68% 30.17 in 10.0 mi ENE 5.8 mph - N/A   Overcast
10:55 PM 63.5 °F 55.4 °F 75% 30.18 in 10.0 mi NNE 3.5 mph - N/A   Clear
11:55 PM 59.5 °F 55.8 °F 87% 30.19 in 10.0 mi Calm Calm - N/A   Clear